Time,TemperatureF,DewpointF,PressureIn,WindDirection,WindDirectionDegrees,WindSpeedMPH,WindSpeedGustMPH,Humidity,HourlyPrecipIn,Conditions,Clouds,dailyrainin,SoftwareType,DateUTC
2013-04-06 00:02:00,33.0,-99.9,-100.00,SSW,203,1.0,6.0,-999,0.00,,,0.00,,2013-04-06 05:02:00,
2013-04-06 00:14:00,33.0,-99.9,-100.00,SSW,203,1.0,6.0,-999,0.00,,,0.00,,2013-04-06 05:14:00,
2013-04-06 00:23:00,33.0,-99.9,-100.00,SSW,203,2.0,5.0,-999,0.00,,,0.00,,2013-04-06 05:23:00,
2013-04-06 00:33:00,33.0,-99.9,-100.00,SSW,203,5.0,9.0,-999,0.00,,,0.00,,2013-04-06 05:33:00,
2013-04-06 00:43:00,33.0,-99.9,-100.00,SSW,203,5.0,9.0,-999,0.00,,,0.00,,2013-04-06 05:43:00,
2013-04-06 00:53:00,33.0,-99.9,-100.00,SSW,203,5.0,10.0,-999,0.00,,,0.00,,2013-04-06 05:53:00,
2013-04-06 01:03:00,32.0,-99.9,-100.00,SSW,203,8.0,20.0,-999,0.00,,,0.00,,2013-04-06 06:03:00,
2013-04-06 01:12:00,32.0,-99.9,-100.00,SSW,203,8.0,20.0,-999,0.00,,,0.00,,2013-04-06 06:12:00,
2013-04-06 01:23:00,31.0,-99.9,-100.00,SSW,203,5.0,12.0,-999,0.00,,,0.00,,2013-04-06 06:23:00,
2013-04-06 01:33:00,31.0,-99.9,-100.00,SSW,203,3.0,8.0,-999,0.00,,,0.00,,2013-04-06 06:33:00,
2013-04-06 01:43:00,31.0,-99.9,-100.00,SSW,203,3.0,8.0,-999,0.00,,,0.00,,2013-04-06 06:43:00,
2013-04-06 01:53:00,31.0,-99.9,-100.00,SSW,203,2.0,5.0,-999,0.01,,,0.01,,2013-04-06 06:53:00,
2013-04-06 02:05:00,31.0,-99.9,-100.00,South,180,1.0,3.0,-999,0.02,,,0.02,,2013-04-06 07:05:00,
2013-04-06 02:12:00,31.0,-99.9,-100.00,South,180,1.0,3.0,-999,0.02,,,0.02,,2013-04-06 07:12:00,
2013-04-06 02:23:00,31.0,-99.9,-100.00,SSE,158,3.0,6.0,-999,0.02,,,0.02,,2013-04-06 07:23:00,
2013-04-06 02:35:00,30.0,-99.9,-100.00,SE,135,1.0,7.0,-999,0.03,,,0.03,,2013-04-06 07:35:00,
2013-04-06 02:45:00,30.0,-99.9,-100.00,SE,135,1.0,7.0,-999,0.03,,,0.03,,2013-04-06 07:45:00,
2013-04-06 02:53:00,30.0,-99.9,-100.00,SSE,158,2.0,6.0,-999,0.03,,,0.04,,2013-04-06 07:53:00,
2013-04-06 03:02:00,30.0,-99.9,-100.00,South,180,3.0,9.0,-999,0.04,,,0.06,,2013-04-06 08:02:00,
2013-04-06 03:13:00,30.0,-99.9,-100.00,South,180,3.0,9.0,-999,0.04,,,0.06,,2013-04-06 08:13:00,
2013-04-06 03:22:00,30.0,-99.9,-100.00,SE,135,3.0,8.0,-999,0.04,,,0.06,,2013-04-06 08:22:00,
2013-04-06 03:32:00,30.0,-99.9,-100.00,SE,135,6.0,9.0,-999,0.04,,,0.07,,2013-04-06 08:32:00,
2013-04-06 03:43:00,30.0,-99.9,-100.00,SE,135,6.0,9.0,-999,0.04,,,0.07,,2013-04-06 08:43:00,
2013-04-06 03:52:00,30.0,-99.9,-100.00,SSE,158,3.0,10.0,-999,0.06,,,0.10,,2013-04-06 08:52:00,
2013-04-06 04:02:00,30.0,-99.9,-100.00,SSE,158,2.0,12.0,-999,0.06,,,0.12,,2013-04-06 09:02:00,
2013-04-06 04:13:00,30.0,-99.9,-100.00,SSE,158,2.0,12.0,-999,0.06,,,0.12,,2013-04-06 09:13:00,
2013-04-06 04:22:00,29.0,-99.9,-100.00,SSE,158,2.0,13.0,-999,0.08,,,0.14,,2013-04-06 09:22:00,
2013-04-06 04:33:00,29.0,-99.9,-100.00,ESE,113,2.0,9.0,-999,0.12,,,0.18,,2013-04-06 09:33:00,
2013-04-06 04:43:00,29.0,-99.9,-100.00,ESE,113,2.0,9.0,-999,0.12,,,0.18,,2013-04-06 09:43:00,
2013-04-06 04:54:00,29.0,-99.9,-100.00,SE,135,3.0,12.0,-999,0.12,,,0.22,,2013-04-06 09:54:00,
2013-04-06 05:04:00,29.0,-99.9,-100.00,SSE,158,5.0,12.0,-999,0.14,,,0.26,,2013-04-06 10:04:00,
2013-04-06 05:13:00,29.0,-99.9,-100.00,SSE,158,5.0,12.0,-999,0.14,,,0.26,,2013-04-06 10:13:00,
2013-04-06 05:23:00,29.0,-99.9,-100.00,SE,135,5.0,10.0,-999,0.16,,,0.30,,2013-04-06 10:23:00,
2013-04-06 05:34:00,29.0,-99.9,-100.00,SE,135,6.0,10.0,-999,0.14,,,0.33,,2013-04-06 10:34:00,
2013-04-06 05:43:00,29.0,-99.9,-100.00,SE,135,6.0,10.0,-999,0.14,,,0.33,,2013-04-06 10:43:00,
2013-04-06 05:54:00,29.0,-99.9,-100.00,SE,135,2.0,10.0,-999,0.14,,,0.36,,2013-04-06 10:54:00,
2013-04-06 06:03:00,29.0,-99.9,-100.00,SE,135,3.0,12.0,-999,0.13,,,0.38,,2013-04-06 11:03:00,
2013-04-06 06:13:00,29.0,-99.9,-100.00,SE,135,3.0,12.0,-999,0.13,,,0.38,,2013-04-06 11:13:00,
2013-04-06 06:23:00,28.0,-99.9,-100.00,SSE,158,3.0,12.0,-999,0.12,,,0.41,,2013-04-06 11:23:00,
2013-04-06 06:33:00,28.0,-99.9,-100.00,SE,135,5.0,13.0,-999,0.13,,,0.45,,2013-04-06 11:33:00,
2013-04-06 06:43:00,28.0,-99.9,-100.00,SE,135,5.0,13.0,-999,0.13,,,0.45,,2013-04-06 11:43:00,
2013-04-06 06:53:00,29.0,-99.9,-100.00,SE,135,6.0,13.0,-999,0.13,,,0.48,,2013-04-06 11:53:00,
2013-04-06 07:03:00,29.0,-99.9,-100.00,SE,135,6.0,13.0,-999,0.13,,,0.48,,2013-04-06 12:03:00,
2013-04-06 07:13:00,29.0,-99.9,-100.00,SE,135,6.0,13.0,-999,0.13,,,0.48,,2013-04-06 12:13:00,
2013-04-06 07:22:00,29.0,-99.9,-100.00,SE,135,3.0,15.0,-999,0.12,,,0.54,,2013-04-06 12:22:00,
2013-04-06 07:33:00,29.0,-99.9,-100.00,SE,135,7.0,13.0,-999,0.10,,,0.56,,2013-04-06 12:33:00,
2013-04-06 07:44:00,29.0,-99.9,-100.00,SE,135,7.0,13.0,-999,0.10,,,0.56,,2013-04-06 12:44:00,
2013-04-06 07:53:00,29.0,-99.9,-100.00,SSE,158,3.0,12.0,-999,0.10,,,0.58,,2013-04-06 12:53:00,
2013-04-06 08:03:00,29.0,-99.9,-100.00,South,180,5.0,12.0,-999,0.07,,,0.59,,2013-04-06 13:03:00,
2013-04-06 08:13:00,29.0,-99.9,-100.00,South,180,5.0,12.0,-999,0.07,,,0.59,,2013-04-06 13:13:00,
2013-04-06 08:24:00,30.0,-99.9,-100.00,SE,135,7.0,13.0,-999,0.06,,,0.60,,2013-04-06 13:24:00,
2013-04-06 08:33:00,30.0,-99.9,-100.00,SE,135,7.0,13.0,-999,0.06,,,0.60,,2013-04-06 13:33:00,
2013-04-06 08:44:00,30.0,-99.9,-100.00,SE,135,7.0,13.0,-999,0.06,,,0.60,,2013-04-06 13:44:00,
2013-04-06 08:54:00,30.0,-99.9,-100.00,SE,135,7.0,14.0,-999,0.03,,,0.62,,2013-04-06 13:54:00,
2013-04-06 09:05:00,30.0,-99.9,-100.00,SSE,158,6.0,14.0,-999,0.06,,,0.65,,2013-04-06 14:05:00,
2013-04-06 09:13:00,30.0,-99.9,-100.00,SSE,158,5.0,12.0,-999,0.07,,,0.66,,2013-04-06 14:13:00,
2013-04-06 09:23:00,30.0,-99.9,-100.00,SSE,158,5.0,12.0,-999,0.07,,,0.66,,2013-04-06 14:23:00,
2013-04-06 09:33:00,31.0,-99.9,-100.00,South,180,5.0,12.0,-999,0.09,,,0.69,,2013-04-06 14:33:00,
2013-04-06 09:43:00,31.0,-99.9,-100.00,South,180,5.0,12.0,-999,0.09,,,0.69,,2013-04-06 14:43:00,
2013-04-06 10:02:00,32.0,-99.9,-100.00,South,180,2.0,12.0,-999,0.05,,,0.70,,2013-04-06 15:02:00,
2013-04-06 10:12:00,32.0,-99.9,-100.00,South,180,2.0,12.0,-999,0.05,,,0.70,,2013-04-06 15:12:00,
2013-04-06 10:23:00,33.0,-99.9,-100.00,SSE,158,6.0,15.0,-999,0.02,,,0.70,,2013-04-06 15:23:00,
2013-04-06 10:34:00,34.0,-99.9,-100.00,SSE,158,6.0,14.0,-999,0.01,,,0.70,,2013-04-06 15:34:00,
2013-04-06 10:44:00,34.0,-99.9,-100.00,SSE,158,6.0,14.0,-999,0.01,,,0.70,,2013-04-06 15:44:00,
2013-04-06 10:54:00,34.0,-99.9,-100.00,SSE,158,5.0,13.0,-999,0.01,,,0.70,,2013-04-06 15:54:00,
2013-04-06 11:05:00,34.0,-99.9,-100.00,SSE,158,6.0,13.0,-999,0.01,,,0.71,,2013-04-06 16:05:00,
2013-04-06 11:18:00,34.0,-99.9,-100.00,SSE,158,6.0,13.0,-999,0.01,,,0.71,,2013-04-06 16:18:00,
2013-04-06 11:23:00,34.0,-99.9,-100.00,SSE,158,7.0,16.0,-999,0.01,,,0.71,,2013-04-06 16:23:00,
2013-04-06 11:33:00,35.0,-99.9,-100.00,SE,135,6.0,14.0,-999,0.01,,,0.71,,2013-04-06 16:33:00,
2013-04-06 11:43:00,35.0,-99.9,-100.00,SE,135,6.0,14.0,-999,0.01,,,0.71,,2013-04-06 16:43:00,
2013-04-06 11:53:00,35.0,-99.9,-100.00,SSE,158,5.0,16.0,-999,0.00,,,0.71,,2013-04-06 16:53:00,
2013-04-06 12:03:00,35.0,-99.9,-100.00,SSE,158,5.0,15.0,-999,0.00,,,0.71,,2013-04-06 17:03:00,
2013-04-06 12:13:00,35.0,-99.9,-100.00,SSE,158,5.0,15.0,-999,0.00,,,0.71,,2013-04-06 17:13:00,
2013-04-06 12:23:00,36.0,-99.9,-100.00,SSE,158,5.0,15.0,-999,0.00,,,0.71,,2013-04-06 17:23:00,
2013-04-06 12:33:00,35.0,-99.9,-100.00,SSE,158,5.0,17.0,-999,0.00,,,0.71,,2013-04-06 17:33:00,
2013-04-06 12:43:00,35.0,-99.9,-100.00,SSE,158,5.0,17.0,-999,0.00,,,0.71,,2013-04-06 17:43:00,
2013-04-06 12:53:00,36.0,-99.9,-100.00,SSE,158,5.0,10.0,-999,0.00,,,0.71,,2013-04-06 17:53:00,
2013-04-06 13:04:00,36.0,-99.9,-100.00,SSE,158,6.0,13.0,-999,0.00,,,0.71,,2013-04-06 18:04:00,
2013-04-06 13:13:00,36.0,-99.9,-100.00,SSE,158,6.0,13.0,-999,0.00,,,0.71,,2013-04-06 18:13:00,
2013-04-06 13:24:00,37.0,-99.9,-100.00,SE,135,3.0,12.0,-999,0.00,,,0.71,,2013-04-06 18:24:00,
2013-04-06 13:33:00,38.0,-99.9,-100.00,SSE,158,6.0,10.0,-999,0.00,,,0.71,,2013-04-06 18:33:00,
2013-04-06 13:43:00,38.0,-99.9,-100.00,SSE,158,6.0,10.0,-999,0.00,,,0.71,,2013-04-06 18:43:00,
2013-04-06 13:52:00,38.0,-99.9,-100.00,South,180,5.0,10.0,-999,0.00,,,0.71,,2013-04-06 18:52:00,
2013-04-06 14:03:00,41.0,-99.9,-100.00,South,180,3.0,10.0,-999,0.00,,,0.71,,2013-04-06 19:03:00,
2013-04-06 14:12:00,41.0,-99.9,-100.00,South,180,3.0,10.0,-999,0.00,,,0.71,,2013-04-06 19:12:00,
2013-04-06 14:23:00,42.0,-99.9,-100.00,South,180,3.0,12.0,-999,0.00,,,0.71,,2013-04-06 19:23:00,
2013-04-06 14:33:00,44.0,-99.9,-100.00,South,180,8.0,13.0,-999,0.00,,,0.71,,2013-04-06 19:33:00,
2013-04-06 14:43:00,44.0,-99.9,-100.00,South,180,8.0,13.0,-999,0.00,,,0.71,,2013-04-06 19:43:00,
2013-04-06 14:54:00,43.0,-99.9,-100.00,South,180,5.0,12.0,-999,0.00,,,0.71,,2013-04-06 19:54:00,
2013-04-06 15:03:00,43.0,-99.9,-100.00,South,180,3.0,10.0,-999,0.00,,,0.71,,2013-04-06 20:03:00,
2013-04-06 15:13:00,43.0,-99.9,-100.00,South,180,3.0,10.0,-999,0.00,,,0.71,,2013-04-06 20:13:00,
2013-04-06 15:23:00,42.0,-99.9,-100.00,South,180,3.0,12.0,-999,0.00,,,0.71,,2013-04-06 20:23:00,
2013-04-06 15:32:00,41.0,-99.9,-100.00,South,180,5.0,15.0,-999,0.00,,,0.71,,2013-04-06 20:32:00,
2013-04-06 15:42:00,41.0,-99.9,-100.00,South,180,5.0,15.0,-999,0.00,,,0.71,,2013-04-06 20:42:00,
2013-04-06 15:53:00,41.0,-99.9,-100.00,South,180,6.0,12.0,-999,0.00,,,0.71,,2013-04-06 20:53:00,
2013-04-06 16:03:00,40.0,-99.9,-100.00,South,180,2.0,12.0,-999,0.00,,,0.71,,2013-04-06 21:03:00,
2013-04-06 16:14:00,40.0,-99.9,-100.00,SSW,203,3.0,12.0,-999,0.00,,,0.71,,2013-04-06 21:14:00,
2013-04-06 16:22:00,40.0,-99.9,-100.00,SSW,203,3.0,12.0,-999,0.00,,,0.71,,2013-04-06 21:22:00,
2013-04-06 16:33:00,40.0,-99.9,-100.00,South,180,6.0,12.0,-999,0.00,,,0.71,,2013-04-06 21:33:00,
2013-04-06 16:44:00,40.0,-99.9,-100.00,South,180,6.0,12.0,-999,0.00,,,0.71,,2013-04-06 21:44:00,
2013-04-06 16:53:00,40.0,-99.9,-100.00,South,180,2.0,7.0,-999,0.00,,,0.71,,2013-04-06 21:53:00,
2013-04-06 17:03:00,40.0,-99.9,-100.00,SE,135,2.0,5.0,-999,0.00,,,0.71,,2013-04-06 22:03:00,
2013-04-06 17:14:00,40.0,-99.9,-100.00,SE,135,2.0,5.0,-999,0.00,,,0.71,,2013-04-06 22:14:00,
2013-04-06 17:23:00,40.0,-99.9,-100.00,South,180,3.0,10.0,-999,0.00,,,0.71,,2013-04-06 22:23:00,
2013-04-06 17:35:00,39.0,-99.9,-100.00,South,180,1.0,7.0,-999,0.00,,,0.71,,2013-04-06 22:35:00,
2013-04-06 17:44:00,39.0,-99.9,-100.00,South,180,1.0,7.0,-999,0.00,,,0.71,,2013-04-06 22:44:00,
2013-04-06 17:55:00,39.0,-99.9,-100.00,South,180,1.0,7.0,-999,0.00,,,0.71,,2013-04-06 22:55:00,
2013-04-06 18:04:00,39.0,-99.9,-100.00,South,180,1.0,3.0,-999,0.00,,,0.71,,2013-04-06 23:04:00,
2013-04-06 18:14:00,39.0,-99.9,-100.00,South,180,1.0,3.0,-999,0.00,,,0.71,,2013-04-06 23:14:00,
2013-04-06 18:24:00,39.0,-99.9,-100.00,South,180,1.0,3.0,-999,0.00,,,0.71,,2013-04-06 23:24:00,
2013-04-06 18:35:00,38.0,-99.9,-100.00,South,180,0.0,3.0,-999,0.00,,,0.71,,2013-04-06 23:35:00,
2013-04-06 18:43:00,38.0,-99.9,-100.00,South,180,0.0,3.0,-999,0.00,,,0.71,,2013-04-06 23:43:00,
2013-04-06 18:54:00,38.0,-99.9,-100.00,South,180,1.0,3.0,-999,0.00,,,0.71,,2013-04-06 23:54:00,
2013-04-06 19:03:00,38.0,-99.9,-100.00,South,180,0.0,1.0,-999,0.00,,,0.71,,2013-04-07 00:03:00,
2013-04-06 19:13:00,38.0,-99.9,-100.00,South,180,0.0,1.0,-999,0.00,,,0.71,,2013-04-07 00:13:00,
2013-04-06 19:23:00,37.0,-99.9,-100.00,SSE,158,1.0,3.0,-999,0.00,,,0.71,,2013-04-07 00:23:00,
2013-04-06 19:33:00,37.0,-99.9,-100.00,SE,135,2.0,3.0,-999,0.00,,,0.71,,2013-04-07 00:33:00,
2013-04-06 19:44:00,37.0,-99.9,-100.00,SE,135,2.0,3.0,-999,0.00,,,0.71,,2013-04-07 00:44:00,
2013-04-06 19:53:00,37.0,-99.9,-100.00,SE,135,0.0,2.0,-999,0.00,,,0.71,,2013-04-07 00:53:00,
2013-04-06 20:03:00,37.0,-99.9,-100.00,SE,135,1.0,2.0,-999,0.01,,,0.72,,2013-04-07 01:03:00,
2013-04-06 20:12:00,37.0,-99.9,-100.00,SE,135,1.0,2.0,-999,0.01,,,0.72,,2013-04-07 01:12:00,
2013-04-06 20:24:00,37.0,-99.9,-100.00,NE,45,0.0,3.0,-999,0.02,,,0.73,,2013-04-07 01:24:00,
2013-04-06 20:33:00,36.0,-99.9,-100.00,NE,45,1.0,3.0,-999,0.02,,,0.73,,2013-04-07 01:33:00,
2013-04-06 20:43:00,36.0,-99.9,-100.00,NE,45,1.0,3.0,-999,0.02,,,0.73,,2013-04-07 01:43:00,
2013-04-06 20:54:00,36.0,-99.9,-100.00,NE,45,0.0,3.0,-999,0.03,,,0.74,,2013-04-07 01:54:00,
2013-04-06 21:04:00,36.0,-99.9,-100.00,NE,45,1.0,3.0,-999,0.04,,,0.76,,2013-04-07 02:04:00,
2013-04-06 21:13:00,36.0,-99.9,-100.00,NE,45,1.0,3.0,-999,0.04,,,0.76,,2013-04-07 02:13:00,
2013-04-06 21:24:00,36.0,-99.9,-100.00,NNE,23,1.0,5.0,-999,0.04,,,0.77,,2013-04-07 02:24:00,
2013-04-06 21:33:00,36.0,-99.9,-100.00,NNE,23,1.0,3.0,-999,0.05,,,0.78,,2013-04-07 02:33:00,
2013-04-06 21:43:00,36.0,-99.9,-100.00,NNE,23,1.0,3.0,-999,0.05,,,0.78,,2013-04-07 02:43:00,
2013-04-06 21:53:00,36.0,-99.9,-100.00,NNE,23,0.0,2.0,-999,0.04,,,0.78,,2013-04-07 02:53:00,
2013-04-06 22:03:00,36.0,-99.9,-100.00,NNE,23,0.0,1.0,-999,0.04,,,0.80,,2013-04-07 03:03:00,
2013-04-06 22:13:00,36.0,-99.9,-100.00,NNE,23,0.0,1.0,-999,0.04,,,0.80,,2013-04-07 03:13:00,
2013-04-06 22:23:00,36.0,-99.9,-100.00,NNE,23,0.0,2.0,-999,0.04,,,0.81,,2013-04-07 03:23:00,
2013-04-06 22:35:00,35.0,-99.9,-100.00,NNE,23,1.0,3.0,-999,0.05,,,0.83,,2013-04-07 03:35:00,
2013-04-06 22:44:00,35.0,-99.9,-100.00,NNE,23,1.0,3.0,-999,0.05,,,0.83,,2013-04-07 03:44:00,
2013-04-06 22:55:00,35.0,-99.9,-100.00,North,0,1.0,6.0,-999,0.07,,,0.85,,2013-04-07 03:55:00,
2013-04-06 23:03:00,34.0,-99.9,-100.00,North,0,0.0,3.0,-999,0.06,,,0.86,,2013-04-07 04:03:00,
2013-04-06 23:15:00,34.0,-99.9,-100.00,North,0,0.0,3.0,-999,0.06,,,0.86,,2013-04-07 04:15:00,
2013-04-06 23:23:00,34.0,-99.9,-100.00,North,0,0.0,2.0,-999,0.05,,,0.86,,2013-04-07 04:23:00,
2013-04-06 23:32:00,33.0,-99.9,-100.00,North,0,1.0,3.0,-999,0.05,,,0.87,,2013-04-07 04:32:00,
2013-04-06 23:43:00,33.0,-99.9,-100.00,North,0,1.0,3.0,-999,0.05,,,0.87,,2013-04-07 04:43:00,
2013-04-06 23:53:00,33.0,-99.9,-100.00,North,0,0.0,3.0,-999,0.03,,,0.88,,2013-04-07 04:53:00,